This is the latest recevied weather packets stored in our database for station/object KA9CBS. If no packets are shown the sender has not sent any weather packets the latest 10 day(s).
| Time | Temp. | Humidity | Pressure | Rain* | Wind** | Luminosity | Snow |
|---|---|---|---|---|---|---|---|
| 1787492882 | 21.67° C | 83% | 1020.1 hPa | 0 mm | - | 246 W/m² | - |
| 1787492578 | 21.11° C | 86% | 1020.1 hPa | 0 mm | - | 239 W/m² | - |
| 1787492273 | 21.11° C | 85% | 1020 hPa | 0 mm | - | 217 W/m² | - |
| 1787491968 | 21.11° C | 87% | 1020.2 hPa | 0 mm | - | 208 W/m² | - |
| 1787491663 | 20.56° C | 88% | 1020.1 hPa | 0 mm | - | 188 W/m² | - |
| 1787491358 | 20.56° C | 88% | 1019.9 hPa | 0 mm | - | 170 W/m² | - |
| 1787491054 | 20.56° C | 89% | 1019.9 hPa | 0 mm | - | 154 W/m² | - |
| 1787490751 | 20° C | 90% | 1019.9 hPa | 0 mm | - | 127 W/m² | - |
| 1787490449 | 20° C | 90% | 1020 hPa | 0 mm | - | 119 W/m² | - |
| 1787490148 | 20° C | 91% | 1019.7 hPa | 0 mm | - | 63 W/m² | - |
| 1787489843 | 20° C | 92% | 1019.9 hPa | 0 mm | - | 57 W/m² | - |
| 1787489538 | 19.44° C | 94% | 1019.9 hPa | 0 mm | - | 50 W/m² | - |
| 1787489234 | 19.44° C | 95% | 1019.8 hPa | 0 mm | - | 50 W/m² | - |
| 1787488930 | 18.89° C | 95% | 1019.7 hPa | 0 mm | - | 49 W/m² | - |
| 1787488625 | 18.89° C | 97% | 1019.7 hPa | 0 mm | - | 45 W/m² | - |
| 1787488322 | 18.89° C | 97% | 1019.8 hPa | 0 mm | - | 32 W/m² | - |
| 1787488019 | 18.33° C | 98% | 1019.9 hPa | 0 mm | - | 31 W/m² | - |
| 1787487714 | 18.33° C | 98% | 1019.8 hPa | 0 mm | - | 28 W/m² | - |
| 1787487411 | 17.78° C | 98% | 1019.6 hPa | 0 mm | - | 27 W/m² | - |
| 1787487108 | 17.78° C | 98% | 1019.4 hPa | 0 mm | - | 25 W/m² | - |
| 1787486807 | 17.78° C | 98% | 1019.4 hPa | 0 mm | - | 23 W/m² | - |
| 1787486502 | 17.78° C | 98% | 1019.4 hPa | 0 mm | - | 21 W/m² | - |
| 1787486201 | 17.78° C | 98% | 1019.4 hPa | 0 mm | - | 19 W/m² | - |
| 1787485896 | 17.78° C | 97% | 1019.8 hPa | 0 mm | - | 17 W/m² | - |
| 1787485592 | 17.78° C | 98% | 1019.7 hPa | 0 mm | - | 12 W/m² | - |
* Rain latest hour (hover to see other rain measurements)
** Current wind speed in m/s (hover to see current wind gust speed)